Location: Unspecified
(35.7250°N, 0.0000°E)
Time: 06:02:32
(UTC+00:00)

Tiros 1 - Pass Details

Date: 29 June 2019
Orbit: 630 x 664 km, 48.4° (Epoch: 18 July)

Event Time Altitude Azimuth Distance (km) Brightness Sun altitude
Rises 21:43:49 0° 274° (W) 2,967 11.1 -22.4°
Reaches altitude 10° 21:46:35 10° 289° (WNW) 2,051 10.4 -22.8°
Maximum altitude 21:50:22 23° 342° (NNW) 1,362 9.5 -23.2°
Drops below altitude 10° 21:54:08 10° 36° (NE) 2,036 9.9 -23.6°
Sets 21:56:52 0° 51° (NE) 2,940 10.6 -23.9°
